Regional Weather Roundup
Issued by NWS New Orleans/Baton Rouge, LA

Home | Current Version | Previous Version | Text Only | Print | Product List | Glossary On
Versions: 1 2 3 4 5 6 7 8 9 10 11 12 13 14 15 16 17 18 19 20 21 22 23 24 25 26 27 28 29 30 31 32 33 34 35 36 37 38 39 40 41 42 43 44 45 46 47 48 49 50
956
ASUS44 KLIX 210505
RWRLIX
NEW ORLEANS REGIONAL WEATHER ROUNDUP
NATIONAL WEATHER SERVICE NEW ORLEANS LA
1200 AM CDT THU AUG 21 2014

NOTE: "FAIR" INDICATES FEW OR NO CLOUDS BELOW 12,000 FEET WITH NO
      SIGNIFICANT WEATHER AND/OR OBSTRUCTIONS TO VISIBILITY.
      SKY/WX - SKY CONDITION AND SIGNIFICANT WEATHER.
      TMP - AIR TEMPERATURE.     DP    - DEWPOINT TEMPERATURE.
      RH  - RELATIVE HUMIDITY.   PRES  - PRESSURE.
      HI  - HEAT INDEX.          WCI   - WIND CHILL INDEX.

*  THESE STATIONS ARE NOT NWS OR FAA STATIONS AND ARE NOT UNDER
   NWS QUALITY CONTROL.

LAZ038-040-048-061>063-065>067-069-210600-
SOUTHEAST LOUISIANA

CITY           SKY/WX    TMP DP  RH WIND       PRES   REMARKS
N.O. AUDUBON     N/A     78  76  93 MISG        N/A
N.O. INTL ARPT PTCLDY    78  72  81 S5        30.09S
N.O. LAKEFRONT CLEAR     81  72  74 SW5       30.09S
N.O. DOWNTOWN*   N/A     82  70  65 S3        30.09F
SLIDELL        CLEAR     77  73  87 CALM      30.08F
BATON ROUGE    MOCLDY    75  73  93 CALM      30.08R
BOOTHVILLE     CLEAR     84  76  76 S6        30.11S
BELLE CHASSE   PTCLDY    76  72  87 SW3       30.09S
BOGALUSA*        N/A     77  73  87 CALM      30.10S
GALLIANO*      NOT AVBL
NEW ROADS*       N/A     76  74  94 SE5       30.08R
GONZALES*        N/A     76  76 100 CALM      30.07S
HAMMOND*       PTCLDY    75  70  83 CALM      30.10S
HOUMA*         CLOUDY    76  72  87 CALM      30.09F
PORT FOURCHON* CLEAR     86  75  70 CALM      30.11S HX  95

$$

MSZ070-080>082-210600-
SOUTHERN MISSISSIPPI

CITY           SKY/WX    TMP DP  RH WIND       PRES   REMARKS
MCCOMB         PTCLDY    75  70  84 CALM      30.09F
GULFPORT       CLEAR     81  77  88 CALM      30.08F
BILOXI         CLEAR     83  76  79 W3        30.09S
PASCAGOULA     CLEAR     76  75  97 CALM      30.10R

$$

COASTAL OBSERVATIONS
LAKE AND NEARSHORE STATIONS

STATION/POSITION TIME  TEMP    WIND        PRES    WAVE
                       AIR SEA DIR/SP/G            HT/PER
                 (UTC) (F)     (DEG/KT/KT) (MB)    (FT/S)
PASCAGOULA       0500   86     230/  8/  9 1018.6
WAVELAND YACHT   0500   83     250/  3/  3 1018.3
GRAND ISLE       0500   85 88  180/  2/  4 1019.8
SOUTHWEST PASS   0500   85 88  190/  4/  6 1019.7
NEW CANAL        0500   82 84  230/  3/  3 1019.3
SHELL BEACH      0500   81 82  210/  2/  4 1018.8

OFFSHORE STATIONS

STATION/POSITION TIME  TEMP    WIND        PRES    WAVE
                       AIR SEA DIR/SP/G            HT/PER
                 (UTC) (F)     (DEG/KT/KT) (MB)    (FT/S)
64 S DAUPHIN ISL 0415   86 87  200/  4/  6 1019.7

$$




USA.gov is the U.S. government's official web portal to all federal, state and local government web resources and services.